Regional Weather Roundup
Issued by NWS Upton, NY

Current Version | Previous Version | Text Only | Print | Product List | Glossary On
Versions: 1 2 3 4 5 6 7 8 9 10 11 12 13 14 15 16 17 18 19 20 21 22 23 24 25 26 27 28 29 30 31 32 33 34 35 36 37 38 39 40 41 42 43 44 45 46 47 48 49 50
000
ASUS41 KOKX 082104
RWROKX

REGIONAL WEATHER ROUNDUP
NATIONAL WEATHER SERVICE NEW YORK NY
400 PM EST MON FEB 08 2016

NOTE: "FAIR" INDICATES FEW OR NO CLOUDS BELOW 12,000 FEET WITH NO
SIGNIFICANT WEATHER AND/OR OBSTRUCTIONS TO VISIBILITY.

NYZ071-072-176-178-NJZ106-104-082200-
NEW YORK CITY METRO AREA


CITY           SKY/WX    TMP DP  RH WIND       PRES   REMARKS
CENTRAL PARK   CLOUDY    32  22  66 NE9G17    29.74S WCI  24
LAGUARDIA APRT CLOUDY    33  24  69 NE15      29.73S WCI  23
KENNEDY INTL   FLURRIES  31  23  72 NE16G24   29.74S WCI  20
NEWARK/LIBERTY CLOUDY    35  23  61 NE13      29.73S WCI  26
BRNX BOT. GARD   N/A     32  23  69 NE9       29.72F WCI  24
TETERBORO      CLOUDY    34  21  59 NE10G16   29.72S WCI  26
$$

NYZ177-179-078>081-082200-
LONG ISLAND NEW YORK

CITY           SKY/WX    TMP DP  RH WIND       PRES   REMARKS
FARMINGDALE    FLURRIES  29  23  78 N15       29.74R WCI  18
ISLIP          LGT SNOW  27  22  81 N14       29.72R VSB 1   WCI  16
SHIRLEY        LGT SNOW  26  22  84 N14G21    29.75R VSB 1   WCI  14
RIVERHEAD        N/A     27  21  80 E7        29.72R WCI  19
WESTHAMPTON      N/A    N/A N/A N/A MISG      29.74R
EAST HAMPTON   LGT SNOW  25  21  86 N9        29.70R WCI  15
MONTAUK POINT    N/A     25  22  88 N14G24    29.71R WCI  13
$$

NYZ052-065-067-082200-
HUDSON VALLEY

CITY           SKY/WX    TMP DP  RH WIND       PRES   REMARKS
WHITE PLAINS   CLOUDY    29  22  75 N7        29.73R WCI  22
NEWBURGH       CLOUDY    32  14  47 NE17      29.73R WCI  21
MONTGOMERY     CLOUDY    33  14  45 NE14      29.72S WCI  23
POUGHKEEPSIE   LGT SNOW  31  19  61 N15       29.76R WCI  20
ALBANY         CLOUDY    31  -2  24 VRB3      29.79R
$$

NJZ001-105-106-008-010-013-015-019>022-104-082200-
NEW JERSEY

CITY           SKY/WX    TMP DP  RH WIND       PRES   REMARKS
NEWARK/LIBERTY CLOUDY    35  23  61 NE13      29.73S WCI  26
TETERBORO      CLOUDY    34  21  59 NE10G16   29.72S WCI  26
CALDWELL       CLOUDY    35  21  56 E10       29.72S WCI  27
MORRISTOWN     CLOUDY    36  18  48 NE5       29.73R WCI  32
SOMERVILLE     CLOUDY    39  18  42 VRB5      29.71R
SUSSEX         CLOUDY    34  14  43 NE8       29.71R WCI  27
ANDOVER          N/A     34  15  46 VRB5      29.71R WCI  30
TRENTON        CLOUDY    38  23  55 E5        29.72R WCI  34
MILLVILLE      CLOUDY    41  28  60 NE6       29.72R
ATLANTIC CITY  CLOUDY    40  25  55 N9        29.72R WCI  34
WRIGHTSTOWN    CLOUDY    37  29  73 NE9       29.71R WCI  30
TOMS RIVER     CLOUDY    36  23  60 NE13      29.74R WCI  27
BELMAR         CLOUDY    34  19  55 NE9       29.73R WCI  26
$$

PAZ047>061-062-071-082200-
EASTERN PENNSYLVANIA

CITY           SKY/WX    TMP DP  RH WIND       PRES   REMARKS
PHILADELPHIA   CLOUDY    42  25  50 SE3       29.73R
ALLENTOWN      CLOUDY    40  22  48 NE8       29.71R WCI  34
SCRANTON       CLOUDY    40  21  46 VRB3      29.66R
$$

CTZ002-004>006-009-010-012-RIZ004-006-007-MAZ004-011-015-082200-
SOUTHERN NEW ENGLAND
 IN CT

CITY           SKY/WX    TMP DP  RH WIND       PRES   REMARKS
BRADLEY INTL   LGT SNOW  23  19  85 N13       29.74S VSB 3/4 WCI  11
HARTFORD       LGT SNOW  25  19  78 N15G22    29.76R WCI  13
DANBURY        LGT SNOW  26  20  77 N8        29.75R VSB 3/4 WCI  18
WTRBRY/OXFORD  LGT SNOW  25  12  58 N12       29.72R VSB 3/4 WCI  14
BRIDGEPORT     LGT SNOW  27  23  85 N12       29.75R VSB 1   WCI  17
MERIDEN        LGT SNOW  26  19  74 N10       29.75S WCI  16
NEW HAVEN      LGT SNOW  25  21  85 N12G25    29.74R FOG     WCI  14
CHESTER        FLURRIES  25  19  80 N14G20    29.71R WCI  13
GROTON         CLOUDY    24  20  84 N12       29.71R FOG     WCI  13
WILLIMANTIC    LGT SNOW  25  17  72 N8        29.72R WCI  16

 IN RI

CITY           SKY/WX    TMP DP  RH WIND       PRES   REMARKS
PROVIDENCE     LGT SNOW  21  16  81 N21G33    29.69R VSB 1   WCI   5
BLOCK ISLAND   CLOUDY    25  19  80 N16G28    29.65R WCI  12
WESTERLY       LGT SNOW  24  19  81 N13G21    29.70R WCI  12

 IN MA

CITY           SKY/WX    TMP DP  RH WIND       PRES   REMARKS
BOSTON         SNOW      20  15  81 N18G28    29.73R VSB 1/2 WCI   5
WORCESTER      LGT SNOW  20  14  77 N14G24    29.67R WCI   7
WESTFIELD      LGT SNOW  23  19  85 N10       29.75S VSB 3/4 WCI  12
PROVINCETOWN   LGT SNOW  31  29  92 N29G39    29.61R FOG     WCI  16
NANTUCKET      LGT SNOW  33  31  92 N32G44    29.52R VSB 3/4 WCI  19
$$

ANZ330-335-338-340-345-350-353-355-082200-
COASTAL MARINE OBSERVATIONS


STATION/POSITION TIME  SKY/WX   TEMP    WIND        PRES    VSBY  WAVE
                                AIR SEA DIR/SP/G                  HT/PER
                 (UTC)          (F)     (DEG/KT/KT) (MB)    (MI)  (FT/S)
NY HARB ENTRANCE 1950            31 44   10/ 19/ 27 1005.7         11/11
4S FIRE IS       NOT AVBL
20S FIRE ISLAND  1950            29 45   10/ 23/ 29 1005.1         13/11
GREAT SOUTH BAY  NOT AVBL
23SW MTP         2050            29 46  350/ 23/ 29 1004.6         13/11
HUDSON CANYON    1950            36 50              1003.3         21/14
KINGS POINT      2000            30 39   50/ 13/ 16 1006.5
EXECUTION ROCKS  NOT AVBL
CENTRAL LI SOUND 2000            26     350/ 17/ 23   N/A           3/ 3
EASTERN LI SOUND 2000            26 42  360/ 19/ 25   N/A
ROBBINS REEF     2000            34      20/ 15/ 18 1005.7
$$


>>>>>>>>>>>>>>>>>>>>>>>>>>>> KEY <<<<<<<<<<<<<<<<<<<<<<<<<<<
>                                                          <
>     SKY/WX - SKY CONDITION/PRESENT WEATHER               <
>     TMP    - TEMPERATURE IN FAHRENHEIT                   <
>     DP     - DEWPOINT IN FAHRENHEIT                      <
>     RH     - RELATIVE HUMIDITY IN PERCENT                <
>     WIND   - DIRECTION AND SPEED IN MPH                  <
>     PRES   - MEAN SEA LEVEL PRESSURE IN INCHES OF HG     <
>     WCI    - WIND CHILL INDEX                            <
>     VSB    - VISIBILITY IN MILES                         <
>     HX     - HEAT INDEX                                  <
>     TC     - TEMPERATURE IN CELSIUS                      <
>     VRB    - VARIABLE WIND DIRECTION                     <
>                                                          <
>>>>>>>>>>>>>>>>>>>>>>>>>>>> KEY <<<<<<<<<<<<<<<<<<<<<<<<<<<





USA.gov is the U.S. government's official web portal to all federal, state and local government web resources and services.